Photometre #848[NE_1.6_Dp] Watnall_MO AOT

File : 20220920_848.hum

20/09/2022,06:46:18,TEMP=10.7,BA=5.68,STAT.A,ExtBa=12.30
20/09/2022,06:50:35,TEMP=11.0,BA=5.68,STAT.A,ExtBa=12.30
20/09/2022,06:55:36,TEMP=11.3,BA=5.68,STAT.A,ExtBa=12.30
20/09/2022,07:01:34,TEMP=11.5,BA=5.68,STAT.A,ExtBa=12.30
20/09/2022,07:08:48,TEMP=11.8,BA=5.68,STAT.A,ExtBa=12.30
20/09/2022,07:17:44,TEMP=12.1,BA=5.52,STAT.A,ExtBa=12.30
20/09/2022,07:29:04,TEMP=12.4,BA=5.64,STAT.B,ExtBa=12.30
20/09/2022,07:34:31,TEMP=12.6,BA=5.52,STAT.A,ExtBa=12.30
20/09/2022,07:40:38,TEMP=12.7,BA=5.68,STAT.A,ExtBa=12.30
20/09/2022,07:47:36,TEMP=12.8,BA=5.68,STAT.A,ExtBa=12.30
20/09/2022,07:51:23,TEMP=12.9,BA=5.64,STAT.D,ExtBa=12.30
20/09/2022,07:54:23,TEMP=13.0,BA=5.64,STAT.D,ExtBa=12.20
20/09/2022,07:56:23,TEMP=13.3,BA=5.64,STAT.A,ExtBa=12.20
20/09/2022,08:00:23,TEMP=13.0,BA=5.68,STAT.D,ExtBa=12.20
20/09/2022,08:03:23,TEMP=13.1,BA=5.68,STAT.D,ExtBa=12.20
20/09/2022,08:05:23,TEMP=13.4,BA=5.68,STAT.C,ExtBa=12.20
20/09/2022,08:16:29,TEMP=14.2,BA=5.52,STAT.A,ExtBa=12.10
20/09/2022,08:27:23,TEMP=13.9,BA=5.68,STAT.D,ExtBa=12.20
20/09/2022,08:29:22,TEMP=14.4,BA=5.68,STAT.A,ExtBa=12.20
20/09/2022,08:33:23,TEMP=14.3,BA=5.52,STAT.D,ExtBa=12.20
20/09/2022,08:36:23,TEMP=14.6,BA=5.52,STAT.D,ExtBa=12.20
20/09/2022,08:39:23,TEMP=14.9,BA=5.52,STAT.D,ExtBa=12.20
20/09/2022,08:42:23,TEMP=15.3,BA=5.52,STAT.D,ExtBa=12.20
20/09/2022,08:44:23,TEMP=16.0,BA=5.52,STAT.A,ExtBa=12.20
20/09/2022,08:48:23,TEMP=16.3,BA=5.52,STAT.D,ExtBa=12.20
20/09/2022,08:51:23,TEMP=16.9,BA=5.52,STAT.D,ExtBa=12.20
20/09/2022,08:54:23,TEMP=17.3,BA=5.52,STAT.D,ExtBa=12.20
20/09/2022,08:59:14,TEMP=17.5,BA=5.52,STAT.F,ExtBa=12.20
20/09/2022,09:12:23,TEMP=17.3,BA=5.68,STAT.D,ExtBa=12.20
20/09/2022,09:14:20,TEMP=17.7,BA=5.68,STAT.D,ExtBa=12.20
20/09/2022,09:27:23,TEMP=17.7,BA=5.68,STAT.D,ExtBa=12.20
20/09/2022,09:29:22,TEMP=18.1,BA=5.68,STAT.D,ExtBa=12.20
20/09/2022,09:42:24,TEMP=18.2,BA=5.68,STAT.D,ExtBa=12.30
20/09/2022,09:44:21,TEMP=18.8,BA=5.68,STAT.D,ExtBa=12.20
20/09/2022,09:50:48,TEMP=18.7,BA=5.48,STAT.D,ExtBa=12.20
20/09/2022,09:59:14,TEMP=18.9,BA=5.48,STAT.F,ExtBa=12.20
20/09/2022,10:08:39,TEMP=18.9,BA=5.48,STAT.D,ExtBa=12.30
20/09/2022,10:14:13,TEMP=19.0,BA=5.48,STAT.D,ExtBa=12.20
20/09/2022,10:27:24,TEMP=19.0,BA=5.48,STAT.D,ExtBa=12.30
20/09/2022,10:29:22,TEMP=19.5,BA=5.48,STAT.D,ExtBa=12.20
20/09/2022,10:33:24,TEMP=19.3,BA=5.48,STAT.D,ExtBa=12.20
20/09/2022,10:36:24,TEMP=19.3,BA=5.48,STAT.D,ExtBa=12.20
20/09/2022,10:39:24,TEMP=19.3,BA=5.48,STAT.D,ExtBa=12.20
20/09/2022,10:44:13,TEMP=19.0,BA=5.48,STAT.D,ExtBa=12.20
20/09/2022,10:48:24,TEMP=18.9,BA=5.48,STAT.D,ExtBa=12.20
20/09/2022,10:51:24,TEMP=19.2,BA=5.48,STAT.D,ExtBa=12.20
20/09/2022,10:54:24,TEMP=19.7,BA=5.48,STAT.D,ExtBa=12.20
20/09/2022,10:57:24,TEMP=20.2,BA=5.48,STAT.D,ExtBa=12.20
20/09/2022,10:59:40,TEMP=20.8,BA=5.48,STAT.F,ExtBa=12.20
20/09/2022,11:26:06,TEMP=22.3,BA=5.44,STAT.D,ExtBa=12.10
20/09/2022,11:29:24,TEMP=21.9,BA=5.44,STAT.D,ExtBa=12.20
20/09/2022,11:33:24,TEMP=21.6,BA=5.44,STAT.D,ExtBa=12.20
20/09/2022,11:44:13,TEMP=20.8,BA=5.60,STAT.D,ExtBa=12.20
20/09/2022,11:57:24,TEMP=19.8,BA=5.44,STAT.D,ExtBa=12.20
20/09/2022,11:59:21,TEMP=20.1,BA=5.44,STAT.F,ExtBa=12.20
20/09/2022,12:12:24,TEMP=18.8,BA=5.60,STAT.D,ExtBa=12.20
20/09/2022,12:14:20,TEMP=19.1,BA=5.60,STAT.D,ExtBa=12.20
20/09/2022,12:27:24,TEMP=18.2,BA=5.60,STAT.D,ExtBa=12.20
20/09/2022,12:29:20,TEMP=18.6,BA=5.60,STAT.D,ExtBa=12.20
20/09/2022,12:42:24,TEMP=18.1,BA=5.60,STAT.D,ExtBa=12.20
20/09/2022,12:44:20,TEMP=18.5,BA=5.60,STAT.D,ExtBa=12.20
20/09/2022,12:57:24,TEMP=17.9,BA=5.60,STAT.D,ExtBa=12.20
20/09/2022,12:59:21,TEMP=18.3,BA=5.60,STAT.F,ExtBa=12.20
20/09/2022,13:12:24,TEMP=17.8,BA=5.60,STAT.D,ExtBa=12.20
20/09/2022,13:14:21,TEMP=18.2,BA=5.60,STAT.D,ExtBa=12.20
20/09/2022,13:27:24,TEMP=17.9,BA=5.64,STAT.D,ExtBa=12.30
20/09/2022,13:29:21,TEMP=18.4,BA=5.64,STAT.D,ExtBa=12.20
20/09/2022,13:42:23,TEMP=18.1,BA=5.64,STAT.D,ExtBa=12.30
20/09/2022,13:44:21,TEMP=18.6,BA=5.64,STAT.D,ExtBa=12.20
20/09/2022,13:57:23,TEMP=18.5,BA=5.64,STAT.D,ExtBa=12.30
20/09/2022,13:59:23,TEMP=19.0,BA=5.64,STAT.F,ExtBa=12.20
20/09/2022,14:12:23,TEMP=19.3,BA=5.64,STAT.D,ExtBa=12.20
20/09/2022,14:14:21,TEMP=19.8,BA=5.64,STAT.D,ExtBa=12.20
20/09/2022,14:27:23,TEMP=19.5,BA=5.64,STAT.D,ExtBa=12.20
20/09/2022,14:29:20,TEMP=19.9,BA=5.64,STAT.D,ExtBa=12.20
20/09/2022,14:42:23,TEMP=19.2,BA=5.64,STAT.D,ExtBa=12.30
20/09/2022,14:44:20,TEMP=19.5,BA=5.64,STAT.D,ExtBa=12.20
20/09/2022,14:57:23,TEMP=19.0,BA=5.64,STAT.D,ExtBa=12.30
20/09/2022,14:59:22,TEMP=19.4,BA=5.64,STAT.F,ExtBa=12.20
20/09/2022,15:12:23,TEMP=18.6,BA=5.64,STAT.D,ExtBa=12.30
20/09/2022,15:14:21,TEMP=19.0,BA=5.64,STAT.A,ExtBa=12.20
20/09/2022,15:27:23,TEMP=18.5,BA=5.64,STAT.D,ExtBa=12.30
20/09/2022,15:30:05,TEMP=18.7,BA=5.48,STAT.A,ExtBa=12.20
20/09/2022,15:42:23,TEMP=18.4,BA=5.64,STAT.D,ExtBa=12.30
20/09/2022,15:44:21,TEMP=18.8,BA=5.64,STAT.A,ExtBa=12.20
20/09/2022,15:53:44,TEMP=18.2,BA=5.44,STAT.C,ExtBa=12.30
20/09/2022,16:02:56,TEMP=18.0,BA=5.64,STAT.A,ExtBa=12.30
20/09/2022,16:10:51,TEMP=17.9,BA=5.64,STAT.A,ExtBa=12.30
20/09/2022,16:17:48,TEMP=17.9,BA=5.64,STAT.A,ExtBa=12.30
20/09/2022,16:23:55,TEMP=17.8,BA=5.52,STAT.A,ExtBa=12.30
20/09/2022,16:29:22,TEMP=17.8,BA=5.52,STAT.B,ExtBa=12.30
20/09/2022,16:40:42,TEMP=17.6,BA=5.64,STAT.A,ExtBa=12.30
20/09/2022,16:49:38,TEMP=17.4,BA=5.64,STAT.A,ExtBa=12.30
20/09/2022,16:56:52,TEMP=17.4,BA=5.48,STAT.A,ExtBa=12.30
20/09/2022,17:07:51,TEMP=17.3,BA=5.64,STAT.A,ExtBa=12.20
20/09/2022,17:12:08,TEMP=17.3,BA=5.52,STAT.A,ExtBa=12.20